FENGYUN 1C DEB, 31370

Orbit data source: Space-Track

FENGYUN 1C DEB, 31370 is space debris in SSO originally from a launch on Mon, 10 May 1999 UTC launched from the Taiyaun Space Center, China (TSC). Fengyun 1C debris stems from the Chinese weather satellite Fengyun-1C, which was intentionally destroyed by a Chinese anti-satellite missile in 2007. This event dramatically increased the amount of space debris, with thousands of trackable fragments posing hazards to satellites and human spaceflight. The Fengyun 1C debris cloud has become a focal point in discussions about space sustainability and the need for international regulations to prevent the creation of new debris.

Loading next visibility...
Identifier
31370, 1999-025BSA
Orbit
SSO
Country
Flag of CNCN / PRC
Related business
Manufacturer
Unknown
Mission
Spacecraft
Bus & Motor
Unknown
Mass
Unknown
Launch date (UTC)
1999-05-10 (27 years ago)
Launch vehicle
Unknown
Launch site
Taiyaun Space Center, China (TSC)
Object type
Payload
Rocket body
Debris
Shape & HBR
Unknown shape, 0.1 m
Radar Cross Section
Small (<0.1 m²)

Expand to show TLE details & history
Last TLE update: 3 days ago

TLE from 3 days ago
0 FENGYUN 1C DEB
1 31370U 99025BSA 26167.27884619  .00000478  00000-0  29366-3 0  9994
2 31370  98.7575 167.3140 0035088 130.2799 230.1448 14.09939100989086
Epoch: 2026-06-16T06:41Z
TLE epoch observation values (Epoch: 2026-06-16T06:41:32.310Z)
Latitude
-0.00006°
Longitude
162.37622°
Altitude
878.81 km
Speed
7.405 km/s
True Right ascension
11h 09m 15s
True Declination
0° 00' 00"
Sunlit
Object was in daylight at epoch
Visualization orbit readout
Latitude
Unknown
Longitude
Unknown
Altitude
Unknown
Speed
Unknown
Apparent Right ascension
Unknown
Apparent Declination
Unknown
Sunlit
N/A
Visualization observer readout
Local Sidereal Time
07:53:05
Azimuth
Unknown
Elevation
Unknown
Doppler factor
Unknown
Orbital elements
Apogee altitude
882.14 km
Perigee altitude
831.369 km
Semi-major axis
7,234.891 km
Eccentricity
0.00351
Inclination
98.7575°
RAAN
167.314°
Arg. of periapsis
130.2799°
True anomaly
229.837°
Mean anomaly
230.1448°
Eccentric anomaly
229.99082°
Mean motion
3.52692 °/min
Orbital period
102.07 mins
BSTAR
0.00029366
Loading maneuver chart data...
Computing Atmospheric mass density...
Loading historical data...
Loading historical data...
Loading historical data...
Loading historical data...
Loading historical data...
Loading historical data...
Loading historical data...

Documentation

Showing up to 5 results
|